User: anonymous   Login
Location: Home
(42.5358°N, 72.7383°W)
Time: 13:00:44
(UTC-05:00)
Language:

Tiros 1 despin weight - Orbit

View from above orbital plane
View from above orbital plane
View from above satellite
View from above satellite

Ground track
Ground track

The orbit data is extracted from the following two-line orbital elements,

1 00115U 60002D   21333.78036182  .00000299  00000-0  62276-4 0  9999
2 00115  48.1661 243.5491 0034103  66.0043 294.4433 14.83914689270565
Epoch (UTC): 29 November 2021 18:43:43
Eccentricity: 0.0034103
inclination: 48.1661°
perigee height: 593 km
apogee height: 641 km
right ascension of ascending node: 243.5491°
argument of perigee: 66.0043°
revolutions per day: 14.83914689
mean anomaly at epoch: 294.4433°
orbit number at epoch: 27056

The dashed part of the orbit path shows where the satellite is in the earth's shadow,  

DLR